QPF
0.03 0.03 0.04 0.05 0.05 0.04 0.04 0.05 0.06 0.07 0.07 0.07 0.06 0.05 0.02 0.01 0.02 0.02 0.04 0.05 0.08 0.10 0.10 0.12 0.10 0.07 0.08 0.07 0.05 0.05 0.04 0.04 0.04 0.04 0.04 0.04 0.05 0.05 0.05 0.05 0.05 0.04 0.04
0.03 0.02 0.04 0.05 0.07 0.06 0.05 0.05 0.06 0.08 0.08 0.08 0.07 0.04 0.03 0.02 0.01 0.02 0.03 0.04 0.06 0.08 0.08 0.11 0.09 0.07 0.08 0.07 0.06 0.05 0.04 0.05 0.05 0.05 0.06 0.06 0.08 0.08 0.07 0.07 0.07 0.07 0.06
0.03 0.02 0.03 0.04 0.07 0.09 0.09 0.10 0.08 0.08 0.08 0.06 0.05 0.04 0.02 0.01 0.01 0.01 0.03 0.04 0.04 0.06 0.08 0.09 0.09 0.09 0.09 0.08 0.08 0.07 0.07 0.07 0.06 0.05 0.05 0.06 0.06 0.05 0.05 0.07 0.07 0.07 0.07
0.05 0.04 0.03 0.03 0.04 0.08 0.12 0.12 0.08 0.08 0.07 0.04 0.03 0.03 0.01 0.01 0.02 0.01 0.03 0.03 0.03 0.04 0.06 0.07 0.09 0.08 0.07 0.08 0.09 0.09 0.09 0.10 0.07 0.06 0.05 0.05 0.04 0.04 0.05 0.05 0.05 0.05 0.05
0.05 0.03 0.03 0.02 0.02 0.05 0.10 0.10 0.07 0.08 0.06 0.04 0.03 0.02 0.01 0.01 0.02 0.02 0.03 0.04 0.03 0.02 0.04 0.07 0.07 0.09 0.09 0.12 0.12 0.12 0.11 0.11 0.09 0.07 0.07 0.06 0.05 0.06 0.06 0.06 0.06 0.05 0.04
0.04 0.04 0.03 0.02 0.02 0.03 0.06 0.07 0.08 0.07 0.04 0.03 0.02 0.01 0.01 0.01 0.01 0.01 0.02 0.02 0.02 0.02 0.03 0.04 0.05 0.06 0.08 0.09 0.10 0.11 0.11 0.11 0.11 0.10 0.09 0.07 0.06 0.06 0.05 0.06 0.06 0.07 0.06
0.02 0.03 0.03 0.03 0.03 0.02 0.03 0.04 0.04 0.04 0.03 0.02 0.01 0.02 0.02 0.01 0.01 0.01 0.01 0.01 0.02 0.03 0.03 0.03 0.03 0.05 0.06 0.07 0.09 0.11 0.11 0.11 0.14 0.14 0.11 0.08 0.07 0.06 0.06 0.06 0.07 0.07 0.08
0.02 0.02 0.02 0.03 0.03 0.03 0.04 0.03 0.02 0.02 0.02 0.03 0.02 0.03 0.02 0.02 0.03 0.03 0.03 0.03 0.03 0.03 0.04 0.04 0.03 0.03 0.04 0.05 0.07 0.11 0.12 0.14 0.15 0.18 0.12 0.08 0.08 0.08 0.07 0.07 0.06 0.07 0.08
0.02 0.03 0.03 0.03 0.04 0.04 0.03 0.03 0.03 0.03 0.03 0.03 0.03 0.03 0.03 0.03 0.04 0.05 0.06 0.05 0.04 0.03 0.04 0.05 0.05 0.04 0.04 0.04 0.04 0.09 0.14 0.14 0.12 0.13 0.14 0.11 0.09 0.07 0.06 0.06 0.06 0.06 0.06
0.02 0.03 0.03 0.03 0.03 0.02 0.03 0.03 0.03 0.03 0.03 0.04 0.04 0.04 0.04 0.04 0.05 0.05 0.05 0.04 0.03 0.02 0.03 0.04 0.05 0.05 0.05 0.05 0.04 0.05 0.11 0.14 0.10 0.07 0.08 0.10 0.12 0.08 0.05 0.05 0.05 0.05 0.05
0.02 0.02 0.03 0.03 0.02 0.01 0.02 0.02 0.02 0.03 0.03 0.03 0.04 0.05 0.06 0.06 0.06 0.04 0.04 0.03 0.02 0.04 0.05 0.04 0.03 0.05 0.05 0.07 0.07 0.06 0.08 0.10 0.09 0.04 0.03 0.05 0.09 0.13 0.10 0.08 0.07 0.07 0.08
0.02 0.02 0.03 0.03 0.02 0.02 0.03 0.04 0.04 0.04 0.05 0.04 0.04 0.04 0.04 0.05 0.05 0.05 0.03 0.02 0.02 0.03 0.04 0.04 0.03 0.04 0.06 0.07 0.07 0.06 0.07 0.12 0.09 0.05 0.04 0.03 0.04 0.08 0.14 0.15 0.13 0.11 0.10
0.01 0.01 0.02 0.03 0.01 0.01 0.03 0.04 0.03 0.03 0.04 0.03 0.02 0.02 0.03 0.03 0.04 0.04 0.03 0.02 0.01 0.02 0.02 0.02 0.02 0.03 0.03 0.05 0.06 0.06 0.05 0.10 0.11 0.08 0.06 0.04 0.03 0.04 0.06 0.11 0.15 0.13 0.12
0.02 0.02 0.02 0.03 0.02 0.02 0.03 0.03 0.02 0.02 0.04 0.04 0.02 0.02 0.02 0.02 0.03 0.02 0.03 0.02 0.02 0.01 0.01 0.01 0.01 0.01 0.02 0.03 0.05 0.06 0.05 0.06 0.10 0.07 0.04 0.04 0.04 0.04 0.04 0.06 0.09 0.10 0.10
0.03 0.03 0.03 0.03 0.03 0.03 0.03 0.02 0.01 0.02 0.04 0.03 0.03 0.02 0.01 0.01 0.03 0.02 0.02 0.03 0.02 0.02 0.01 0.01 0.01 0.01 0.01 0.03 0.05 0.05 0.06 0.07 0.08 0.08 0.05 0.04 0.04 0.04 0.04 0.05 0.06 0.08 0.06
0.03 0.03 0.03 0.02 0.03 0.03 0.03 0.02 0.02 0.03 0.04 0.03 0.03 0.02 0.02 0.02 0.02 0.02 0.02 0.02 0.02 0.02 0.01 0.01 0.01 0.00 0.01 0.02 0.04 0.03 0.05 0.07 0.08 0.08 0.06 0.04 0.04 0.04 0.04 0.05 0.06 0.06 0.05
0.02 0.02 0.02 0.02 0.03 0.03 0.03 0.02 0.02 0.02 0.03 0.03 0.03 0.03 0.02 0.02 0.02 0.02 0.01 0.01 0.01 0.01 0.01 0.01 0.01 0.00 0.01 0.01 0.02 0.02 0.03 0.05 0.07 0.09 0.07 0.05 0.04 0.03 0.04 0.04 0.04 0.05 0.06
0.02 0.03 0.03 0.02 0.03 0.04 0.03 0.03 0.02 0.02 0.03 0.02 0.03 0.03 0.02 0.01 0.01 0.01 0.01 0.01 0.01 0.02 0.02 0.01 0.01 0.01 0.01 0.01 0.01 0.02 0.02 0.03 0.05 0.09 0.10 0.07 0.05 0.05 0.05 0.05 0.05 0.06 0.06
0.03 0.03 0.03 0.02 0.03 0.04 0.03 0.03 0.03 0.02 0.03 0.03 0.02 0.01 0.01 0.01 0.00 0.01 0.01 0.01 0.01 0.02 0.03 0.02 0.01 0.01 0.01 0.02 0.02 0.02 0.02 0.03 0.05 0.08 0.10 0.10 0.08 0.07 0.07 0.05 0.04 0.04 0.04
0.03 0.03 0.03 0.03 0.04 0.04 0.03 0.03 0.03 0.03 0.02 0.02 0.01 0.01 0.01 0.00 0.01 0.01 0.01 0.01 0.01 0.01 0.01 0.01 0.02 0.01 0.01 0.01 0.01 0.01 0.02 0.02 0.03 0.05 0.07 0.09 0.08 0.07 0.05 0.03 0.02 0.02 0.02
0.03 0.03 0.02 0.03 0.03 0.04 0.03 0.02 0.02 0.02 0.02 0.01 0.01 0.01 0.01 0.01 0.01 0.01 0.00 0.00 0.01 0.00 0.00 0.01 0.01 0.01 0.01 0.01 0.02 0.02 0.02 0.02 0.01 0.02 0.04 0.05 0.06 0.06 0.05 0.03 0.03 0.03 0.02
0.02 0.02 0.02 0.01 0.02 0.02 0.02 0.02 0.02 0.02 0.02 0.02 0.01 0.01 0.01 0.00 0.00 0.00 0.00 0.01 0.01 0.01 0.00 0.00 0.01 0.01 0.00 0.01 0.02 0.02 0.01 0.01 0.01 0.01 0.03 0.04 0.05 0.04 0.05 0.04 0.03 0.03 0.04
0.03 0.03 0.02 0.02 0.02 0.02 0.02 0.02 0.02 0.02 0.01 0.01 0.01 0.01 0.00 0.00 0.00 0.00 0.00 0.00 0.00 0.00 0.00 0.00 0.00 0.00 0.00 0.01 0.02 0.02 0.01 0.01 0.01 0.01 0.02 0.03 0.04 0.04 0.03 0.04 0.03 0.02 0.02
0.05 0.04 0.04 0.03 0.02 0.01 0.01 0.02 0.02 0.01 0.01 0.00 0.01 0.01 0.01 0.00 0.00 0.00 0.00 0.00 0.00 0.00 0.00 0.00 0.00 0.01 0.01 0.01 0.01 0.02 0.02 0.02 0.01 0.01 0.02 0.03 0.04 0.04 0.04 0.03 0.03 0.02 0.01
0.08 0.06 0.04 0.03 0.02 0.01 0.02 0.02 0.02 0.02 0.01 0.01 0.00 0.00 0.00 0.00 0.00 0.00 0.00 0.00 0.00 0.00 0.00 0.00 0.00 0.00 0.01 0.02 0.02 0.02 0.02 0.01 0.01 0.01 0.02 0.03 0.03 0.03 0.04 0.04 0.03 0.02 0.01
0.09 0.08 0.05 0.04 0.03 0.02 0.03 0.03 0.04 0.03 0.02 0.02 0.02 0.01 0.00 0.00 0.01 0.01 0.00 0.00 0.00 0.00 0.00 0.00 0.00 0.00 0.01 0.02 0.03 0.02 0.01 0.01 0.00 0.00 0.02 0.03 0.03 0.03 0.04 0.04 0.04 0.03 0.02
MSLP
1016.49 1016.51 1016.42 1016.24 1016.01 1015.77 1015.56 1015.41 1015.32 1015.30 1015.32 1015.38 1015.43 1015.49 1015.53 1015.55 1015.56 1015.56 1015.56 1015.54 1015.50 1015.42 1015.31 1015.15 1014.96 1014.77 1014.58 1014.44 1014.36 1014.35 1014.43 1014.58 1014.77 1015.00 1015.23 1015.43 1015.61 1015.74 1015.84 1015.91 1015.96 1016.00 1016.05
1016.31 1016.29 1016.19 1016.04 1015.85 1015.68 1015.55 1015.49 1015.51 1015.60 1015.74 1015.90 1016.06 1016.19 1016.29 1016.34 1016.36 1016.34 1016.30 1016.23 1016.14 1016.02 1015.88 1015.70 1015.50 1015.30 1015.10 1014.94 1014.83 1014.80 1014.83 1014.94 1015.10 1015.29 1015.49 1015.66 1015.81 1015.91 1015.97 1015.99 1015.99 1015.99 1015.99
1016.00 1015.97 1015.89 1015.78 1015.67 1015.59 1015.56 1015.61 1015.75 1015.95 1016.21 1016.48 1016.75 1016.97 1017.13 1017.23 1017.26 1017.23 1017.15 1017.04 1016.91 1016.75 1016.58 1016.39 1016.18 1015.98 1015.79 1015.62 1015.50 1015.44 1015.44 1015.51 1015.62 1015.77 1015.93 1016.07 1016.18 1016.25 1016.27 1016.26 1016.22 1016.17 1016.13
1015.62 1015.60 1015.57 1015.53 1015.50 1015.52 1015.60 1015.75 1015.99 1016.29 1016.65 1017.03 1017.38 1017.69 1017.93 1018.08 1018.14 1018.12 1018.04 1017.91 1017.75 1017.56 1017.37 1017.17 1016.97 1016.77 1016.59 1016.42 1016.30 1016.22 1016.19 1016.22 1016.29 1016.39 1016.50 1016.60 1016.68 1016.72 1016.71 1016.67 1016.61 1016.53 1016.46
1015.24 1015.25 1015.27 1015.31 1015.37 1015.48 1015.65 1015.88 1016.19 1016.56 1016.98 1017.43 1017.86 1018.25 1018.56 1018.78 1018.90 1018.93 1018.87 1018.75 1018.59 1018.41 1018.21 1018.01 1017.82 1017.63 1017.46 1017.30 1017.17 1017.08 1017.02 1017.01 1017.03 1017.09 1017.16 1017.22 1017.26 1017.26 1017.24 1017.18 1017.10 1017.01 1016.92
1014.89 1014.94 1015.03 1015.15 1015.30 1015.48 1015.71 1015.98 1016.32 1016.72 1017.16 1017.64 1018.12 1018.58 1018.97 1019.27 1019.48 1019.58 1019.59 1019.52 1019.39 1019.23 1019.06 1018.88 1018.70 1018.53 1018.36 1018.21 1018.07 1017.96 1017.88 1017.83 1017.81 1017.81 1017.83 1017.85 1017.86 1017.84 1017.80 1017.73 1017.63 1017.53 1017.43
1014.61 1014.71 1014.86 1015.05 1015.27 1015.51 1015.77 1016.05 1016.38 1016.75 1017.18 1017.66 1018.17 1018.67 1019.13 1019.53 1019.84 1020.05 1020.15 1020.17 1020.12 1020.01 1019.88 1019.73 1019.57 1019.42 1019.26 1019.11 1018.96 1018.83 1018.72 1018.63 1018.57 1018.53 1018.51 1018.49 1018.47 1018.42 1018.36 1018.27 1018.17 1018.06 1017.94
1014.39 1014.53 1014.75 1015.01 1015.28 1015.55 1015.82 1016.08 1016.37 1016.69 1017.08 1017.53 1018.03 1018.56 1019.10 1019.59 1020.01 1020.34 1020.57 1020.70 1020.74 1020.71 1020.64 1020.53 1020.41 1020.27 1020.12 1019.96 1019.81 1019.66 1019.52 1019.40 1019.31 1019.23 1019.17 1019.11 1019.06 1018.99 1018.90 1018.80 1018.68 1018.55 1018.42
1014.20 1014.39 1014.66 1014.97 1015.29 1015.58 1015.84 1016.08 1016.31 1016.57 1016.90 1017.30 1017.78 1018.33 1018.91 1019.49 1020.02 1020.48 1020.83 1021.08 1021.23 1021.30 1021.29 1021.24 1021.14 1021.03 1020.89 1020.74 1020.57 1020.41 1020.26 1020.12 1019.99 1019.89 1019.80 1019.72 1019.64 1019.55 1019.44 1019.32 1019.18 1019.03 1018.87
1014.01 1014.23 1014.54 1014.90 1015.25 1015.56 1015.82 1016.03 1016.21 1016.42 1016.68 1017.03 1017.48 1018.03 1018.64 1019.28 1019.91 1020.47 1020.94 1021.30 1021.56 1021.72 1021.79 1021.79 1021.74 1021.64 1021.52 1021.38 1021.22 1021.06 1020.90 1020.75 1020.62 1020.51 1020.42 1020.32 1020.23 1020.12 1019.99 1019.84 1019.68 1019.50 1019.32
1013.78 1014.03 1014.38 1014.77 1015.15 1015.48 1015.74 1015.94 1016.09 1016.25 1016.46 1016.77 1017.19 1017.72 1018.34 1019.01 1019.69 1020.33 1020.89 1021.35 1021.70 1021.94 1022.08 1022.14 1022.14 1022.08 1021.99 1021.86 1021.72 1021.57 1021.43 1021.30 1021.18 1021.08 1020.99 1020.91 1020.82 1020.71 1020.57 1020.40 1020.21 1020.00 1019.79
1013.51 1013.78 1014.14 1014.56 1014.97 1015.33 1015.60 1015.80 1015.95 1016.08 1016.26 1016.53 1016.91 1017.41 1018.02 1018.70 1019.40 1020.08 1020.70 1021.23 1021.64 1021.95 1022.16 1022.28 1022.33 1022.31 1022.26 1022.17 1022.06 1021.94 1021.82 1021.72 1021.64 1021.57 1021.52 1021.46 1021.40 1021.30 1021.17 1021.00 1020.79 1020.55 1020.31
1013.21 1013.48 1013.86 1014.30 1014.73 1015.11 1015.41 1015.63 1015.78 1015.92 1016.08 1016.31 1016.66 1017.12 1017.70 1018.35 1019.05 1019.73 1020.37 1020.94 1021.40 1021.77 1022.04 1022.22 1022.32 1022.36 1022.35 1022.30 1022.23 1022.15 1022.08 1022.02 1021.98 1021.96 1021.96 1021.95 1021.93 1021.87 1021.76 1021.60 1021.39 1021.14 1020.88
1012.90 1013.19 1013.58 1014.03 1014.48 1014.88 1015.21 1015.45 1015.62 1015.76 1015.91 1016.13 1016.44 1016.85 1017.38 1017.99 1018.65 1019.31 1019.95 1020.53 1021.03 1021.44 1021.76 1022.00 1022.16 1022.25 1022.29 1022.29 1022.27 1022.23 1022.20 1022.19 1022.20 1022.24 1022.29 1022.34 1022.38 1022.37 1022.31 1022.18 1021.98 1021.74 1021.46
1012.63 1012.94 1013.34 1013.79 1014.26 1014.68 1015.02 1015.29 1015.48 1015.63 1015.78 1015.98 1016.25 1016.62 1017.08 1017.63 1018.24 1018.87 1019.49 1020.08 1020.60 1021.05 1021.42 1021.71 1021.93 1022.08 1022.17 1022.21 1022.23 1022.22 1022.23 1022.25 1022.30 1022.38 1022.49 1022.61 1022.70 1022.76 1022.76 1022.68 1022.51 1022.28 1022.01
1012.43 1012.76 1013.18 1013.65 1014.12 1014.55 1014.91 1015.20 1015.40 1015.56 1015.71 1015.88 1016.12 1016.43 1016.84 1017.33 1017.88 1018.47 1019.07 1019.65 1020.19 1020.68 1021.10 1021.45 1021.72 1021.92 1022.05 1022.13 1022.16 1022.18 1022.19 1022.23 1022.30 1022.41 1022.56 1022.72 1022.88 1023.00 1023.06 1023.04 1022.93 1022.73 1022.47
1012.28 1012.66 1013.11 1013.60 1014.08 1014.53 1014.90 1015.20 1015.41 1015.57 1015.71 1015.86 1016.06 1016.33 1016.68 1017.12 1017.62 1018.17 1018.74 1019.32 1019.88 1020.40 1020.87 1021.27 1021.59 1021.83 1021.99 1022.09 1022.13 1022.14 1022.15 1022.17 1022.24 1022.35 1022.52 1022.71 1022.91 1023.08 1023.20 1023.24 1023.18 1023.03 1022.80
1012.16 1012.61 1013.11 1013.63 1014.14 1014.60 1014.98 1015.29 1015.51 1015.67 1015.79 1015.93 1016.09 1016.32 1016.63 1017.01 1017.47 1017.99 1018.55 1019.12 1019.70 1020.25 1020.76 1021.20 1021.56 1021.84 1022.02 1022.12 1022.15 1022.14 1022.12 1022.11 1022.15 1022.25 1022.40 1022.59 1022.82 1023.02 1023.19 1023.28 1023.28 1023.18 1023.00
1012.00 1012.53 1013.09 1013.66 1014.21 1014.69 1015.10 1015.42 1015.65 1015.81 1015.93 1016.05 1016.20 1016.39 1016.66 1017.01 1017.43 1017.92 1018.47 1019.05 1019.63 1020.21 1020.74 1021.22 1021.61 1021.91 1022.10 1022.20 1022.22 1022.19 1022.13 1022.08 1022.08 1022.13 1022.26 1022.44 1022.66 1022.88 1023.08 1023.21 1023.26 1023.22 1023.08
1011.71 1012.33 1012.97 1013.61 1014.21 1014.74 1015.18 1015.52 1015.78 1015.95 1016.08 1016.20 1016.33 1016.51 1016.76 1017.07 1017.47 1017.94 1018.46 1019.03 1019.62 1020.20 1020.76 1021.25 1021.66 1021.98 1022.18 1022.29 1022.30 1022.25 1022.17 1022.08 1022.04 1022.05 1022.14 1022.29 1022.49 1022.71 1022.92 1023.08 1023.17 1023.17 1023.09
1011.24 1011.95 1012.67 1013.38 1014.04 1014.63 1015.13 1015.52 1015.81 1016.02 1016.18 1016.31 1016.45 1016.63 1016.86 1017.16 1017.53 1017.97 1018.47 1019.02 1019.59 1020.16 1020.72 1021.22 1021.64 1021.97 1022.20 1022.32 1022.34 1022.29 1022.21 1022.11 1022.04 1022.03 1022.08 1022.20 1022.37 1022.58 1022.78 1022.95 1023.07 1023.11 1023.07
1010.56 1011.33 1012.12 1012.90 1013.64 1014.30 1014.86 1015.32 1015.67 1015.94 1016.14 1016.32 1016.49 1016.68 1016.91 1017.19 1017.54 1017.95 1018.42 1018.93 1019.47 1020.02 1020.55 1021.05 1021.48 1021.83 1022.08 1022.23 1022.29 1022.28 1022.22 1022.15 1022.08 1022.06 1022.10 1022.19 1022.34 1022.52 1022.71 1022.88 1023.01 1023.07 1023.07
1009.69 1010.49 1011.33 1012.17 1012.98 1013.71 1014.35 1014.88 1015.32 1015.66 1015.94 1016.17 1016.39 1016.61 1016.86 1017.15 1017.48 1017.85 1018.28 1018.74 1019.23 1019.74 1020.24 1020.72 1021.15 1021.52 1021.81 1022.01 1022.14 1022.19 1022.19 1022.17 1022.15 1022.15 1022.19 1022.27 1022.39 1022.55 1022.72 1022.87 1023.00 1023.09 1023.12
1008.70 1009.49 1010.35 1011.22 1012.08 1012.87 1013.58 1014.20 1014.73 1015.16 1015.53 1015.85 1016.14 1016.41 1016.70 1016.99 1017.31 1017.66 1018.04 1018.45 1018.88 1019.33 1019.79 1020.24 1020.67 1021.06 1021.40 1021.67 1021.88 1022.02 1022.11 1022.17 1022.22 1022.26 1022.32 1022.41 1022.53 1022.66 1022.80 1022.94 1023.06 1023.14 1023.19
1007.70 1008.45 1009.28 1010.15 1011.02 1011.85 1012.63 1013.32 1013.94 1014.47 1014.94 1015.36 1015.73 1016.08 1016.41 1016.74 1017.06 1017.39 1017.73 1018.08 1018.46 1018.86 1019.27 1019.69 1020.12 1020.53 1020.91 1021.25 1021.55 1021.79 1021.99 1022.14 1022.26 1022.37 1022.47 1022.58 1022.69 1022.80 1022.92 1023.04 1023.14 1023.22 1023.28
1006.81 1007.47 1008.23 1009.06 1009.92 1010.76 1011.57 1012.32 1013.02 1013.64 1014.21 1014.73 1015.20 1015.64 1016.03 1016.40 1016.75 1017.07 1017.39 1017.71 1018.04 1018.39 1018.76 1019.15 1019.57 1019.99 1020.41 1020.82 1021.19 1021.53 1021.82 1022.07 1022.27 1022.45 1022.59 1022.71 1022.82 1022.93 1023.03 1023.12 1023.20 1023.28 1023.34
Thickness
5770 5770 5769 5769 5768 5768 5767 5765 5764 5764 5763 5762 5761 5760 5759 5758 5757 5756 5756 5756 5755 5754 5752 5750 5748 5746 5745 5743 5741 5740 5738 5737 5735 5734 5732 5731 5730 5729 5728 5727 5727 5726 5725
5770 5769 5768 5767 5767 5766 5765 5764 5763 5762 5761 5761 5760 5759 5758 5757 5757 5756 5756 5756 5755 5754 5752 5750 5748 5746 5745 5743 5741 5740 5738 5737 5735 5734 5732 5730 5729 5728 5727 5726 5726 5725 5724
5770 5768 5767 5766 5766 5765 5764 5763 5762 5761 5760 5760 5759 5758 5757 5757 5756 5756 5756 5755 5754 5753 5752 5750 5748 5746 5745 5743 5741 5740 5738 5736 5735 5733 5731 5729 5728 5727 5726 5725 5724 5723 5723
5770 5768 5767 5765 5765 5764 5763 5762 5760 5759 5758 5757 5756 5756 5756 5756 5756 5755 5755 5754 5753 5752 5751 5750 5748 5746 5744 5743 5741 5739 5738 5736 5734 5733 5731 5729 5727 5726 5725 5724 5723 5722 5721
5770 5768 5766 5765 5764 5763 5761 5761 5759 5757 5755 5755 5755 5754 5754 5754 5754 5754 5754 5753 5752 5751 5749 5748 5747 5745 5744 5742 5741 5739 5737 5735 5734 5733 5730 5728 5726 5725 5724 5723 5721 5720 5720
5770 5768 5766 5765 5763 5761 5759 5758 5756 5755 5754 5753 5753 5752 5752 5753 5753 5752 5752 5751 5750 5749 5747 5746 5745 5744 5743 5741 5740 5738 5737 5735 5734 5732 5730 5728 5726 5724 5723 5721 5720 5719 5718
5769 5767 5765 5764 5762 5760 5758 5757 5755 5753 5751 5751 5749 5747 5749 5750 5750 5750 5750 5749 5748 5747 5745 5744 5743 5742 5741 5740 5739 5738 5736 5735 5733 5731 5729 5727 5725 5723 5721 5720 5719 5718 5717
5769 5767 5765 5763 5761 5759 5757 5755 5753 5751 5749 5749 5746 5742 5739 5741 5744 5747 5747 5746 5745 5744 5743 5741 5740 5739 5738 5737 5737 5736 5735 5734 5733 5730 5728 5726 5724 5722 5720 5719 5717 5717 5716
5768 5766 5765 5763 5761 5759 5756 5754 5753 5750 5746 5747 5746 5741 5734 5732 5736 5741 5742 5742 5741 5740 5739 5738 5737 5736 5735 5735 5734 5733 5732 5732 5731 5729 5727 5725 5723 5721 5719 5718 5716 5715 5715
5767 5765 5763 5762 5760 5758 5756 5754 5753 5750 5747 5744 5743 5742 5739 5737 5732 5731 5734 5736 5737 5736 5735 5735 5734 5733 5732 5731 5731 5730 5730 5729 5728 5727 5725 5723 5722 5719 5718 5716 5715 5714 5713
5765 5763 5762 5760 5758 5756 5754 5752 5751 5749 5747 5744 5741 5739 5737 5735 5732 5727 5725 5729 5731 5732 5732 5731 5730 5729 5729 5728 5727 5727 5727 5726 5725 5724 5723 5721 5720 5718 5716 5714 5713 5712 5712
5762 5761 5760 5758 5756 5754 5752 5751 5749 5747 5744 5742 5740 5738 5735 5732 5729 5726 5723 5723 5723 5726 5728 5728 5727 5726 5726 5724 5724 5724 5724 5722 5722 5721 5719 5718 5716 5715 5713 5712 5711 5710 5709
5759 5758 5758 5756 5754 5752 5751 5749 5746 5744 5742 5740 5738 5736 5734 5732 5730 5726 5722 5720 5719 5721 5722 5723 5723 5723 5722 5721 5721 5721 5720 5719 5718 5717 5715 5714 5713 5711 5710 5709 5707 5706 5706
5758 5757 5755 5753 5751 5749 5748 5746 5743 5741 5739 5737 5735 5733 5731 5729 5728 5725 5721 5717 5714 5714 5715 5717 5718 5718 5717 5717 5717 5716 5715 5715 5714 5712 5711 5709 5708 5707 5706 5705 5703 5702 5702
5757 5754 5752 5750 5748 5746 5744 5742 5740 5737 5735 5733 5732 5730 5727 5726 5724 5723 5720 5717 5712 5708 5708 5710 5711 5713 5713 5712 5712 5711 5710 5710 5709 5707 5706 5705 5703 5702 5701 5700 5699 5698 5697
5754 5751 5748 5746 5744 5742 5740 5738 5736 5733 5731 5729 5727 5726 5723 5722 5720 5719 5716 5714 5712 5708 5704 5705 5706 5707 5707 5708 5706 5705 5705 5704 5703 5703 5701 5700 5699 5698 5696 5695 5694 5693 5692
5751 5748 5745 5742 5740 5738 5736 5733 5731 5729 5726 5724 5723 5721 5719 5717 5715 5713 5711 5709 5707 5705 5701 5701 5701 5701 5701 5700 5700 5700 5699 5698 5697 5697 5696 5695 5694 5692 5691 5690 5689 5688 5687
5747 5744 5741 5738 5736 5734 5731 5729 5726 5724 5721 5719 5717 5715 5713 5712 5709 5708 5706 5704 5702 5700 5698 5694 5694 5694 5694 5693 5693 5693 5693 5692 5691 5691 5690 5689 5688 5687 5686 5685 5683 5683 5682
5742 5740 5736 5733 5731 5729 5726 5723 5721 5718 5716 5714 5712 5710 5708 5706 5704 5702 5700 5698 5696 5695 5692 5689 5688 5687 5686 5686 5686 5686 5686 5685 5685 5685 5684 5683 5682 5681 5681 5679 5678 5677 5677
5737 5735 5732 5729 5726 5724 5721 5718 5715 5712 5710 5708 5707 5705 5703 5702 5699 5697 5694 5691 5689 5687 5684 5682 5680 5679 5679 5679 5678 5677 5677 5677 5677 5678 5678 5677 5676 5676 5675 5674 5673 5672 5671
5732 5730 5727 5724 5722 5719 5717 5714 5710 5707 5704 5702 5700 5699 5698 5697 5695 5692 5690 5686 5683 5680 5677 5675 5673 5672 5672 5671 5670 5669 5669 5670 5670 5670 5670 5670 5670 5670 5669 5668 5667 5667 5666
5727 5724 5721 5719 5716 5715 5712 5709 5706 5702 5698 5696 5694 5693 5692 5691 5689 5687 5685 5683 5679 5675 5672 5670 5668 5666 5666 5665 5664 5663 5662 5662 5662 5663 5662 5662 5663 5663 5663 5662 5662 5661 5660
5722 5719 5716 5713 5711 5709 5707 5704 5701 5697 5693 5690 5688 5686 5686 5685 5682 5680 5678 5676 5674 5671 5669 5666 5664 5663 5662 5661 5659 5657 5656 5656 5656 5655 5655 5656 5656 5656 5656 5656 5655 5655 5654
5716 5714 5711 5709 5706 5705 5702 5699 5696 5692 5689 5686 5683 5681 5679 5678 5676 5673 5671 5668 5666 5665 5663 5662 5660 5659 5658 5657 5655 5653 5652 5650 5649 5649 5648 5648 5648 5648 5649 5649 5649 5648 5648
5711 5708 5706 5703 5700 5699 5696 5693 5690 5687 5683 5681 5679 5676 5674 5672 5671 5668 5664 5661 5659 5659 5658 5657 5655 5654 5653 5652 5650 5648 5646 5644 5644 5644 5642 5641 5641 5641 5642 5642 5643 5642 5641
5706 5703 5700 5697 5695 5693 5691 5688 5685 5682 5678 5676 5674 5671 5669 5667 5665 5662 5659 5656 5653 5653 5651 5650 5649 5648 5646 5645 5644 5643 5642 5640 5638 5637 5636 5635 5635 5634 5635 5635 5635 5634 5634